Regional Weather Roundup
Issued by NWS

Home | Current Version | Previous Version | Text Only | Print | Product List | Glossary On
Versions: 1 2 3 4 5 6 7 8 9 10 11 12 13 14 15 16 17 18 19 20 21 22 23 24 25 26 27 28 29 30 31 32 33 34 35 36 37 38 39 40 41 42 43 44 45 46 47 48 49 50
000
ASUS46 KPQR 231710
RWROR

OREGON REGIONAL WEATHER ROUNDUP
NATIONAL WEATHER SERVICE PORTLAND OR
1000 AM PDT SAT AUG 23 2014

NOTE: "FAIR" INDICATES FEW OR NO CLOUDS BELOW 12,000 FEET WITH
NO SIGNIFICANT WEATHER AND/OR OBSTRUCTIONS TO VISIBILITY.

ORZ001>013-231800-
NORTHWEST OREGON


CITY           SKY/WX    TMP DP  RH WIND       PRES   REMARKS
ASTORIA        CLOUDY    61  56  83 NE6       30.14S
NEWPORT        SUNNY     57  55  94 NW7       30.14S
PORTLAND       MOSUNNY   66  56  70 W5        30.12F
VANCOUVER WA   SUNNY     67  55  65 CALM      30.12F
SCAPPOOSE      SUNNY     69  55  60 N7        30.11F
HILLSBORO      SUNNY     69  54  58 CALM      30.11F
AURORA         SUNNY     69  55  60 N9        30.11F
MCMINNVILLE    SUNNY     70  54  56 CALM      30.11F
SALEM          SUNNY     69  54  58 N9        30.10F
CORVALLIS      SUNNY     70  54  56 NE8       30.11F
EUGENE         MOSUNNY   69  54  58 N8        30.11S
$$

ORZ021-028-231800-
SOUTHWEST OREGON


CITY           SKY/WX    TMP DP  RH WIND       PRES   REMARKS
NORTH BEND     MOSUNNY   57  57 100 CALM      30.09F
BROOKINGS      SUNNY     80  55  42 SW6       29.95S
ROSEBURG       SUNNY     67  51  56 CALM      30.08F
SEXTON SUMMIT  SUNNY     69  45  41 E6        30.13S
MEDFORD        SUNNY     66  48  52 CALM      30.07F
$$

ORZ009-041-231800-
COLUMBIA GORGE


CITY           SKY/WX    TMP DP  RH WIND       PRES   REMARKS
TROUTDALE      SUNNY     67  55  65 CALM      30.11S
THE DALLES     SUNNY     69  51  52 VRB3      30.11F
$$

ORZ029>031-042>050-061>064-231800-
EASTERN OREGON


CITY           SKY/WX    TMP DP  RH WIND       PRES   REMARKS
REDMOND        SUNNY     65  45  48 VRB6      30.18F
BEND           SUNNY     63  45  51 NE7       30.20F
KLAMATH FALLS  SUNNY     64  40  41 E9        30.17S
LAKEVIEW       SUNNY     64  39  39 N14       30.20F
HERMISTON      SUNNY     70  52  52 W6        30.12R
PENDLETON      MOSUNNY   66  49  54 W7        30.13R
JOHN DAY       CLOUDY    60  47  63 W12       30.19R
MEACHAM        PTSUNNY   57  49  74 VRB5      30.18R
LA GRANDE      MOSUNNY   64  45  48 NW16      30.13R
BAKER CITY     MOSUNNY   65  48  54 NW20      30.12R
BURNS          SUNNY     66  42  41 N10       30.16S
ROME             N/A     64  39  39 W7        30.13R
ONTARIO        SUNNY     71  46  40 MISG      30.06F
$$



USA.gov is the U.S. government's official web portal to all federal, state and local government web resources and services.